TimeEDT,TemperatureF,Dew PointF,Humidity,Sea Level PressureIn,VisibilityMPH,Wind Direction,Wind SpeedMPH,Gust SpeedMPH,PrecipitationIn,Events,Conditions,WindDirDegrees,DateUTC
12:15 AM,50.0,30.2,47,29.79,10.0,ESE,11.5,-,N/A,,Clear,120,2014-04-22 04:15:00
12:35 AM,51.8,28.4,41,29.78,10.0,ESE,12.7,-,N/A,,Clear,120,2014-04-22 04:35:00
12:55 AM,51.8,28.4,41,29.78,10.0,ESE,6.9,-,N/A,,Scattered Clouds,110,2014-04-22 04:55:00
1:15 AM,51.8,28.4,41,29.77,10.0,Calm,Calm,-,N/A,,Overcast,0,2014-04-22 05:15:00
1:35 AM,50.0,30.2,47,29.77,10.0,SE,10.4,-,N/A,,Overcast,130,2014-04-22 05:35:00
1:55 AM,51.8,30.2,44,29.76,10.0,SE,5.8,-,N/A,,Overcast,130,2014-04-22 05:55:00
2:15 AM,50.0,30.2,47,29.75,10.0,East,5.8,-,N/A,,Overcast,100,2014-04-22 06:15:00
2:35 AM,51.8,28.4,41,29.74,10.0,SE,8.1,-,N/A,,Scattered Clouds,140,2014-04-22 06:35:00
2:55 AM,51.8,28.4,41,29.73,10.0,SE,12.7,-,N/A,,Clear,130,2014-04-22 06:55:00
3:15 AM,51.8,28.4,41,29.74,10.0,SE,9.2,-,N/A,,Clear,130,2014-04-22 07:15:00
3:35 AM,50.0,30.2,47,29.73,10.0,ESE,10.4,-,N/A,,Clear,120,2014-04-22 07:35:00
3:55 AM,51.8,28.4,41,29.72,10.0,ESE,8.1,-,N/A,,Partly Cloudy,120,2014-04-22 07:55:00
4:15 AM,50.0,28.4,43,29.71,10.0,ESE,13.8,-,N/A,,Partly Cloudy,120,2014-04-22 08:15:00
4:35 AM,50.0,28.4,43,29.71,10.0,SE,9.2,-,N/A,,Partly Cloudy,140,2014-04-22 08:35:00
4:55 AM,50.0,28.4,43,29.70,10.0,ESE,11.5,-,N/A,,Clear,120,2014-04-22 08:55:00
5:15 AM,48.2,28.4,46,29.70,10.0,SE,10.4,-,N/A,,Clear,130,2014-04-22 09:15:00
5:35 AM,48.2,26.6,43,29.68,10.0,SE,16.1,-,N/A,,Clear,130,2014-04-22 09:35:00
6:15 AM,48.2,26.6,43,29.67,10.0,ESE,12.7,-,N/A,,Clear,120,2014-04-22 10:15:00
6:35 AM,48.2,26.6,43,29.67,10.0,ESE,12.7,-,N/A,,Partly Cloudy,120,2014-04-22 10:35:00
6:55 AM,48.2,28.4,46,29.67,10.0,SE,13.8,-,N/A,,Clear,140,2014-04-22 10:55:00
7:15 AM,50.0,28.4,43,29.67,10.0,SE,11.5,-,N/A,,Clear,140,2014-04-22 11:15:00
7:35 AM,51.8,28.4,41,29.67,10.0,ESE,13.8,-,N/A,,Clear,110,2014-04-22 11:35:00
7:55 AM,51.8,28.4,41,29.65,10.0,ESE,9.2,-,N/A,,Scattered Clouds,120,2014-04-22 11:55:00
8:15 AM,53.6,32.0,44,29.65,10.0,Calm,Calm,-,N/A,,Scattered Clouds,0,2014-04-22 12:15:00
8:35 AM,55.4,30.2,38,29.65,10.0,West,4.6,-,N/A,,Scattered Clouds,270,2014-04-22 12:35:00
8:55 AM,55.4,33.8,44,29.62,10.0,Calm,Calm,-,N/A,,Scattered Clouds,0,2014-04-22 12:55:00
9:15 AM,57.2,30.2,36,29.61,10.0,Calm,Calm,-,N/A,,Scattered Clouds,0,2014-04-22 13:15:00
9:35 AM,57.2,35.6,44,29.61,10.0,West,3.5,-,N/A,,Partly Cloudy,260,2014-04-22 13:35:00
9:55 AM,57.2,30.2,36,29.61,10.0,Calm,Calm,-,N/A,,Scattered Clouds,0,2014-04-22 13:55:00
10:15 AM,59.0,30.2,34,29.60,10.0,WNW,3.5,-,N/A,,Mostly Cloudy,290,2014-04-22 14:15:00
10:35 AM,60.8,28.4,29,29.60,10.0,Calm,Calm,-,N/A,,Scattered Clouds,0,2014-04-22 14:35:00
10:55 AM,62.6,28.4,27,29.59,9.0,Calm,Calm,-,N/A,,Mostly Cloudy,0,2014-04-22 14:55:00
11:15 AM,62.6,28.4,27,29.57,10.0,NNE,4.6,-,N/A,,Overcast,30,2014-04-22 15:15:00
11:35 AM,64.4,28.4,26,29.57,10.0,NW,4.6,-,N/A,,Mostly Cloudy,320,2014-04-22 15:35:00
11:55 AM,64.4,32.0,30,29.57,10.0,West,9.2,-,N/A,,Overcast,260,2014-04-22 15:55:00
12:15 PM,64.4,30.2,28,29.57,10.0,WSW,9.2,-,N/A,,Overcast,250,2014-04-22 16:15:00
12:35 PM,64.4,32.0,30,29.56,10.0,Calm,Calm,-,N/A,,Overcast,0,2014-04-22 16:35:00
12:55 PM,64.4,33.8,32,29.54,9.0,Calm,Calm,-,N/A,,Overcast,0,2014-04-22 16:55:00
1:15 PM,66.2,37.4,35,29.53,8.0,WSW,5.8,-,N/A,,Mostly Cloudy,240,2014-04-22 17:15:00
1:35 PM,66.2,39.2,37,29.52,10.0,West,10.4,-,N/A,,Mostly Cloudy,260,2014-04-22 17:35:00
1:55 PM,66.2,39.2,37,29.52,10.0,West,10.4,-,N/A,,Overcast,280,2014-04-22 17:55:00
2:15 PM,66.2,39.2,37,29.51,10.0,West,8.1,-,N/A,,Overcast,260,2014-04-22 18:15:00
2:35 PM,66.2,39.2,37,29.51,10.0,SW,9.2,-,N/A,,Overcast,230,2014-04-22 18:35:00
2:55 PM,64.4,44.6,49,29.51,10.0,WSW,15.0,21.9,N/A,,Overcast,240,2014-04-22 18:55:00
3:15 PM,62.6,46.4,55,29.50,10.0,South,6.9,-,N/A,,Overcast,190,2014-04-22 19:15:00
3:35 PM,62.6,44.6,52,29.49,10.0,South,5.8,-,N/A,,Overcast,190,2014-04-22 19:35:00
3:55 PM,62.6,44.6,52,29.49,10.0,SSW,9.2,-,N/A,,Overcast,200,2014-04-22 19:55:00
4:15 PM,62.6,44.6,52,29.50,10.0,SW,9.2,-,N/A,,Overcast,220,2014-04-22 20:15:00
4:35 PM,60.8,44.6,55,29.50,10.0,South,8.1,-,N/A,,Overcast,180,2014-04-22 20:35:00
4:55 PM,60.8,44.6,55,29.49,10.0,SSW,5.8,-,N/A,,Overcast,200,2014-04-22 20:55:00
5:15 PM,59.0,44.6,59,29.49,10.0,South,5.8,-,N/A,,Overcast,190,2014-04-22 21:15:00
5:35 PM,59.0,46.4,63,29.48,10.0,South,6.9,-,N/A,,Overcast,180,2014-04-22 21:35:00
5:55 PM,57.2,46.4,67,29.48,10.0,Calm,Calm,-,N/A,,Overcast,0,2014-04-22 21:55:00
6:15 PM,57.2,48.2,72,29.48,9.0,Calm,Calm,-,N/A,,Overcast,0,2014-04-22 22:15:00
6:35 PM,55.4,48.2,77,29.49,7.0,WSW,9.2,-,N/A,,Overcast,240,2014-04-22 22:35:00
6:55 PM,53.6,48.2,82,29.49,7.0,SE,4.6,-,0.01,,Overcast,130,2014-04-22 22:55:00
7:15 PM,53.6,50.0,88,29.49,10.0,SE,3.5,-,N/A,,Overcast,140,2014-04-22 23:15:00
7:35 PM,53.6,50.0,88,29.49,9.0,SE,4.6,-,0.01,,Overcast,140,2014-04-22 23:35:00
7:55 PM,53.6,50.0,88,29.48,8.0,SSE,4.6,-,0.01,,Overcast,160,2014-04-22 23:55:00
8:15 PM,51.8,50.0,94,29.49,10.0,South,3.5,-,N/A,,Overcast,180,2014-04-23 00:15:00
8:35 PM,51.8,50.0,94,29.48,10.0,SSW,3.5,-,N/A,,Overcast,210,2014-04-23 00:35:00
8:55 PM,51.8,50.0,94,29.48,9.0,Calm,Calm,-,N/A,,Scattered Clouds,0,2014-04-23 00:55:00
9:15 PM,51.8,48.2,88,29.48,10.0,SE,4.6,-,N/A,,Mostly Cloudy,130,2014-04-23 01:15:00
9:35 PM,51.8,48.2,88,29.49,10.0,Calm,Calm,-,N/A,,Mostly Cloudy,0,2014-04-23 01:35:00
9:55 PM,51.8,48.2,88,29.49,10.0,Calm,Calm,-,N/A,,Scattered Clouds,0,2014-04-23 01:55:00
10:15 PM,51.8,48.2,88,29.49,10.0,SE,4.6,-,N/A,,Partly Cloudy,140,2014-04-23 02:15:00
10:35 PM,51.8,48.2,88,29.48,10.0,Calm,Calm,-,N/A,,Mostly Cloudy,0,2014-04-23 02:35:00
10:55 PM,53.6,48.2,82,29.48,10.0,WNW,4.6,-,N/A,,Overcast,300,2014-04-23 02:55:00
11:15 PM,53.6,46.4,77,29.48,10.0,West,9.2,-,N/A,,Overcast,280,2014-04-23 03:15:00
11:35 PM,53.6,46.4,77,29.48,10.0,WSW,4.6,-,N/A,,Mostly Cloudy,250,2014-04-23 03:35:00
11:55 PM,53.6,46.4,77,29.48,10.0,WSW,4.6,-,N/A,,Scattered Clouds,240,2014-04-23 03:55:00